Location: Taukkyan
(23.1052°N, 94.0030°E)
Time: 11:28:34
(UTC+00:00)

DELTA 2 R/B (1) - Pass Details

Date: 06 July 2020
Orbit: 790 x 803 km, 39.6° (Epoch: 14 August)

Event Time Altitude Azimuth Distance (km) Brightness Sun altitude
Rises 22:12:05 0° 293° (WNW) 3,300 6.4 -11.4°
Reaches altitude 10° 22:14:47 10° 284° (WNW) 2,369 5.6 -10.9°
Maximum altitude 22:19:44 33° 221° (SW) 1,322 4.2 -9.9°
Drops below altitude 10° 22:24:41 10° 159° (SSE) 2,363 6.0 -8.9°
Sets 22:27:24 0° 149° (SSE) 3,290 6.8 -8.4°
